Weather History for KBUY - March, 2013

Change the Weather History Date:

Tuesday, March 26, 2013

  Actual Average Record
Temperature  
Mean Temperature 39 °F -  
Max Temperature 48 °F 65 °F 80 °F (1954)
Min Temperature 30 °F 37 °F 25 °F (1972)
Degree Days  
Heating Degree Days 26    
Moisture  
Dew Point 25 °F    
Average Humidity 54    
Maximum Humidity 76    
Minimum Humidity 41    
Precipitation  
Precipitation 0.00 in - - ()
Sea Level Pressure  
Sea Level Pressure 29.95 in    
Wind  
Wind Speed 8 mph (West)    
Max Wind Speed 13 mph    
Max Gust Speed 21 mph    
Visibility 10 miles    
Events      
Averages and records for this station are not official NWS values.
T = Trace of Precipitation, MM = Missing Value Source: NWS Daily Summary

Daily Weather History Graph

Daily Weather History Graph

Search for Another Location

Airport or City:

Trip Planner

Search our weather history database for the weather conditions in past years. The results will help you decide how hot, cold, wet, or windy it might be!

Date:

Astronomy

Mar. 26, 2013 Rise Set
Actual Time 7:12 AM EDT 7:34 PM EDT
Civil Twilight 6:46 AM EDT 8:00 PM EDT
Nautical Twilight 6:16 AM EDT 8:30 PM EDT
Astronomical Twilight 5:46 AM EDT 9:01 PM EDT
Moon 7:09 PM EDT 6:27 AM EDT
Length of Visible Light 13h 13m
Length of Day
12h 22m
Waxing Gibbous, 99% of the Moon is Illuminated
Mar 26
Waxing Gibbous
Mar 27
Full
Apr 3
Last Quarter
Apr 10
New
Apr 18
First Quarter

Hourly Weather History & Observations

Time (EDT) Temp. Windchill Dew Point Humidity Pressure Visibility Wind Dir Wind Speed Gust Speed Precip Events Conditions
12:54 AM 37.0 °F 31.0 °F 24.1 °F 59% 29.83 in 10.0 mi WSW 8.1 mph - N/A   Overcast
1:54 AM 37.0 °F 31.6 °F 25.0 °F 62% 29.83 in 10.0 mi WSW 6.9 mph - N/A   Overcast
2:54 AM 37.0 °F 30.4 °F 25.0 °F 62% 29.84 in 10.0 mi WSW 9.2 mph - N/A   Overcast
3:54 AM 37.0 °F 30.4 °F 25.0 °F 62% 29.85 in 10.0 mi WSW 9.2 mph - N/A   Overcast
4:54 AM 35.1 °F 27.9 °F 24.1 °F 64% 29.85 in 10.0 mi WSW 9.2 mph - N/A   Overcast
5:54 AM 33.1 °F 28.7 °F 24.1 °F 70% 29.87 in 10.0 mi SW 4.6 mph - N/A   Mostly Cloudy
6:54 AM 30.9 °F 26.2 °F 24.1 °F 76% 29.88 in 10.0 mi WSW 4.6 mph - N/A   Scattered Clouds
7:54 AM 34.0 °F 29.8 °F 26.1 °F 73% 29.90 in 10.0 mi WSW 4.6 mph - N/A   Mostly Cloudy
8:54 AM 39.0 °F 32.8 °F 27.0 °F 62% 29.91 in 10.0 mi WSW 9.2 mph - N/A   Clear
9:54 AM 43.0 °F 37.2 °F 26.1 °F 51% 29.92 in 10.0 mi WNW 10.4 mph 16.1 mph N/A   Clear
10:54 AM 46.0 °F 40.6 °F 26.1 °F 46% 29.94 in 10.0 mi NW 11.5 mph 20.7 mph N/A   Scattered Clouds
11:54 AM 46.9 °F - 26.1 °F 44% 29.94 in 10.0 mi NW 10.4 mph 18.4 mph N/A   Mostly Cloudy
12:54 PM 46.0 °F 40.6 °F 25.0 °F 44% 29.95 in 10.0 mi NW 11.5 mph 16.1 mph N/A   Overcast
1:54 PM 46.0 °F 40.6 °F 25.0 °F 44% 29.95 in 10.0 mi WNW 11.5 mph 16.1 mph N/A   Overcast
2:54 PM 48.0 °F - 26.1 °F 42% 29.95 in 10.0 mi NW 12.7 mph - N/A   Overcast
3:54 PM 46.9 °F - 25.0 °F 42% 29.96 in 10.0 mi NW 8.1 mph - N/A   Overcast
4:54 PM 46.9 °F - 24.1 °F 41% 29.97 in 10.0 mi WNW 10.4 mph - N/A   Overcast
5:54 PM 46.0 °F 41.9 °F 25.0 °F 44% 29.99 in 10.0 mi WNW 8.1 mph - N/A   Overcast
6:54 PM 46.0 °F 40.6 °F 24.1 °F 42% 30.01 in 10.0 mi WNW 11.5 mph - N/A   Overcast
7:54 PM 43.0 °F 38.8 °F 24.1 °F 47% 30.04 in 10.0 mi WNW 6.9 mph - N/A   Mostly Cloudy
8:54 PM 42.1 °F 37.7 °F 23.0 °F 47% 30.06 in 10.0 mi WNW 6.9 mph - N/A   Clear
9:54 PM 39.0 °F 35.7 °F 24.1 °F 55% 30.10 in 10.0 mi West 4.6 mph - N/A   Clear
10:54 PM 39.0 °F 34.0 °F 25.0 °F 57% 30.12 in 10.0 mi West 6.9 mph - N/A   Clear
11:54 PM 37.0 °F 30.4 °F 25.0 °F 62% 30.13 in 10.0 mi West 9.2 mph - N/A   Clear